Weather History for Crestview, FL

Change the Weather History Date:

Friday, October 5, 2012

  Actual Average Record
Temperature  
Mean Temperature 74 °F -  
Max Temperature 85 °F - - ()
Min Temperature 63 °F - - ()
Cooling Degree Days 9    
Growing Degree Days 24 (Base 50)    
Moisture  
Dew Point 66 °F    
Average Humidity 93    
Maximum Humidity 100    
Minimum Humidity 57    
Precipitation  
Precipitation 0.00 in - - ()
Sea Level Pressure  
Sea Level Pressure 30.11 in    
Wind  
Wind Speed 2 mph (NNE)    
Max Wind Speed 8 mph    
Max Gust Speed -    
Visibility 5 miles    
Events Fog    
T = Trace of Precipitation, MM = Missing Value Source: NWS Daily Summary

Daily Weather History Graph

Daily Weather History Graph

Search for Another Location

Airport:

Trip Planner

Search our weather history database for the weather conditions in past years. The results will help you decide how hot, cold, wet, or windy it might be!

Date:

Astronomy

Oct. 05, 2012 Rise Set
Actual Time 6:42 AM CDT 6:25 PM CDT
Civil Twilight 6:18 AM CDT 6:49 PM CDT
Nautical Twilight 5:50 AM CDT 7:17 PM CDT
Astronomical Twilight 5:22 AM CDT 7:45 PM CDT
Moon 10:07 PM CDT (10/5) 11:30 AM CDT (10/5)
Length of Visible Light 12h 31m
Length of Day
11h 43m
Waning Gibbous, 74% of the Moon is Illuminated
Oct 5
Waning Gibbous
Oct 8
Last Quarter
Oct 15
New
Oct 21
First Quarter
Oct 29
Full

Hourly Weather History & Observations

Time (CDT) Temp. Heat Index Dew Point Humidity Pressure Visibility Wind Dir Wind Speed Gust Speed Precip Events Conditions
12:55 AM 64.4 °F - 63.0 °F 95% 30.15 in 10.0 mi Calm Calm - N/A   Clear
1:55 AM 63.5 °F - 62.4 °F 96% 30.14 in 10.0 mi NNW 3.5 mph - N/A   Clear
2:55 AM 64.0 °F - 63.1 °F 97% 30.13 in 10.0 mi Calm Calm - N/A   Clear
3:49 AM 64.4 °F - 62.6 °F 94% 30.12 in 9.0 mi Calm Calm - N/A   Partly Cloudy
3:55 AM 63.9 °F - 63.1 °F 97% 30.12 in 9.0 mi Calm Calm - N/A   Scattered Clouds
3:56 AM 64.4 °F - 62.6 °F 94% 30.12 in 10.0 mi Calm Calm - N/A   Mostly Cloudy
3:59 AM 64.4 °F - 62.6 °F 94% 30.12 in 10.0 mi Calm Calm - N/A   Mostly Cloudy
4:08 AM 64.4 °F - 62.6 °F 94% 30.12 in 10.0 mi North 3.5 mph - N/A   Mostly Cloudy
4:32 AM 64.4 °F - 62.6 °F 94% 30.12 in 3.0 mi NNW 4.6 mph - N/A   Overcast
4:33 AM 64.4 °F - 62.6 °F 94% 30.12 in 2.5 mi NNW 3.5 mph - N/A   Overcast
4:34 AM 64.4 °F - 62.6 °F 94% 30.12 in 2.0 mi NNW 3.5 mph - N/A   Overcast
4:35 AM 64.4 °F - 62.6 °F 94% 30.12 in 1.8 mi NNW 3.5 mph - N/A   Overcast
4:37 AM 64.4 °F - 62.6 °F 94% 30.12 in 1.2 mi NNW 3.5 mph - N/A   Overcast
4:43 AM 64.4 °F - 62.6 °F 94% 30.12 in 1.5 mi NNW 3.5 mph - N/A   Overcast
4:49 AM 64.4 °F - 62.6 °F 94% 30.12 in 1.2 mi NNW 3.5 mph - N/A   Overcast
4:50 AM 64.4 °F - 64.4 °F 100% 30.12 in 1.0 mi NNW 3.5 mph - N/A   Mist
4:51 AM 64.4 °F - 64.4 °F 100% 30.12 in 0.8 mi NNW 3.5 mph - N/A   Mist
4:55 AM 64.0 °F - 63.7 °F 99% 30.12 in 0.5 mi NNW 3.5 mph - N/A Fog Fog
5:16 AM 64.4 °F - 64.4 °F 100% 30.12 in 0.5 mi Calm Calm - N/A Fog Fog
5:25 AM 64.4 °F - 64.4 °F 100% 30.12 in 0.2 mi North 3.5 mph - N/A Fog Fog
5:37 AM 64.4 °F - 64.4 °F 100% 30.12 in 0.5 mi Calm Calm - N/A Fog Fog
5:46 AM 64.4 °F - 64.4 °F 100% 30.13 in 0.2 mi Calm Calm - N/A Fog Fog
5:55 AM 64.4 °F - 64.0 °F 99% 30.13 in 0.2 mi Calm Calm - N/A Fog Fog
6:55 AM 65.3 °F - 64.9 °F 99% 30.14 in 0.2 mi Calm Calm - N/A Fog Fog
7:55 AM 65.8 °F - 65.5 °F 99% 30.14 in 0.2 mi NNE 4.6 mph - N/A Fog Fog
8:01 AM 66.2 °F - 66.2 °F 100% 30.14 in 0.2 mi NE 4.6 mph - N/A Fog Fog
8:19 AM 66.2 °F - 66.2 °F 100% 30.14 in 0.5 mi NNE 4.6 mph - N/A Fog Fog
8:35 AM 66.2 °F - 66.2 °F 100% 30.14 in 0.8 mi NNE 4.6 mph - N/A   Mist
8:50 AM 66.2 °F - 66.2 °F 100% 30.14 in 0.5 mi North 6.9 mph - N/A Fog Fog
8:55 AM 66.9 °F - 66.7 °F 99% 30.14 in 0.5 mi North 4.6 mph - N/A Fog Fog
9:10 AM 68.0 °F - 68.0 °F 100% 30.14 in 0.8 mi North 5.8 mph - N/A   Mist
9:40 AM 68.0 °F - 68.0 °F 100% 30.14 in 1.2 mi NNE 3.5 mph - N/A   Overcast
9:55 AM 68.9 °F - 68.7 °F 99% 30.14 in 2.0 mi NE 4.6 mph - N/A   Overcast
10:20 AM 69.8 °F - 69.8 °F 100% 30.13 in 4.0 mi ENE 4.6 mph - N/A   Overcast
10:36 AM 71.6 °F - 71.6 °F 100% 30.13 in 6.0 mi NNE 3.5 mph - N/A   Mostly Cloudy
10:55 AM 72.5 °F - 72.3 °F 99% 30.14 in 10.0 mi NE 2.3 mph - N/A   Mostly Cloudy
11:55 AM 76.5 °F - 72.9 °F 89% 30.12 in 10.0 mi North 3.5 mph - N/A   Mostly Cloudy
12:55 PM 81.0 °F 84.9 °F 71.1 °F 72% 30.09 in 10.0 mi East 8.1 mph - N/A   Mostly Cloudy
1:55 PM 81.9 °F 86.2 °F 71.1 °F 70% 30.06 in 10.0 mi ENE 4.6 mph - N/A   Mostly Cloudy
2:55 PM 82.4 °F 86.1 °F 69.6 °F 65% 30.03 in 10.0 mi East 4.6 mph - N/A   Mostly Cloudy
3:55 PM 85.1 °F 88.5 °F 68.5 °F 57% 30.01 in 10.0 mi SE 6.9 mph - N/A   Mostly Cloudy
4:55 PM 82.2 °F 86.0 °F 69.6 °F 66% 30.01 in 10.0 mi East 3.5 mph - N/A   Mostly Cloudy
5:55 PM 81.7 °F 85.4 °F 70.0 °F 68% 30.01 in 10.0 mi East 4.6 mph - N/A   Scattered Clouds
6:55 PM 75.7 °F - 70.0 °F 82% 30.01 in 10.0 mi Calm Calm - N/A   Scattered Clouds
7:55 PM 73.9 °F - 70.5 °F 89% 30.02 in 10.0 mi SSE 3.5 mph - N/A   Partly Cloudy
8:59 PM 71.6 °F - 69.3 °F 92% 30.05 in 10.0 mi East 3.5 mph - N/A   Partly Cloudy
9:55 PM 72.5 °F - 69.8 °F 91% 30.04 in 10.0 mi Calm Calm - N/A   Partly Cloudy
10:55 PM 72.1 °F - 70.0 °F 93% 30.04 in 10.0 mi ESE 4.6 mph - N/A   Partly Cloudy
11:55 PM 72.1 °F - 69.8 °F 92% 30.04 in 10.0 mi Calm Calm - N/A   Partly Cloudy